Location: ????????
(48.4751°N, 37.6926°E)
Time: 13:02:34
(UTC+00:00)

Aureole 3 - Pass Details

Date: 20 January 2021
Orbit: 381 x 1231 km, 82.5° (Epoch: 26 February)

Event Time Altitude Azimuth Distance (km) Brightness Sun altitude
Rises 15:28:40 0° 356° (N) 2,744 6.8 -12.9°
Reaches altitude 10° 15:31:11 10° 7° (N) 1,719 5.6 -13.3°
Maximum altitude 15:34:30 32° 72° (ENE) 799 3.6 -13.9°
Drops below altitude 10° 15:37:22 10° 138° (SE) 1,475 5.2 -14.3°
Enters shadow 15:37:55 - 142° (SE) 1,690 5.6 -14.4°
Exits shadow 15:39:24 - 149° (SSE) 2,298 6.3 -14.7°
